Flag for Japan Weather past 2 weeks in Fukuoka, Japan

Now
75 °F

Broken clouds.


Feels Like: 78 °F
Forecast: 70 / 73 °F
Wind: 7 mph from Northeast

Location: Fukuoka Airport

Current Time: Sep 18, 2014 at 10:52:45 AM

Latest Report: Sep 18, 2014 at 10:30 AM


Visibility: N/A

Pressure: 29.95 "Hg

Humidity: 47%

Dew point: 54 °F

Location of FukuokaLocation

Historic Weather in Fukuoka — Graph

°F

Fukuoka temperature yesterday

Maximum temperature yesterday: 84 °F (at 11:30 AM)
Minimum temperature yesterday: 68 °F (at 5:00 AM)
Average temperature yesterday: 76 °F

Past Weeks' High & Low Weather Summary

 TemperatureHumidityPressure
High86 °F (Sep 5, 1:30 PM)100% (Sep 3, 6:49 PM)29.98 "Hg (Sep 3, 6:49 PM)
Low64 °F (Sep 14, 3:00 AM)31% (Sep 13, 3:00 PM)29.62 "Hg (Sep 8, 1:30 PM)
Average76 °F71%29.82 "Hg
* Reported Sep 3 9:00 AM — Sep 18 9:30 AM, Fukuoka, Weather by CustomWeather, © 2014

Note: Actual official high and low records may vary slightly from our data, if they occured in-between our weather recording intervals... More about our weather records

Advertising

Fukuoka weather history for previous 24 hours

 ConditionsComfort  
Time TempWeatherWind HumidityBarometerVisibility
9:30 AM
Sep 18
73 °FPartly sunny.5 mph57%29.98 "HgN/A
9:00 AM73 °FPartly sunny.7 mph57%29.98 "HgN/A
8:30 AM73 °FPartly sunny.5 mph61%29.95 "HgN/A
8:00 AM73 °FPartly sunny.6 mph61%29.95 "HgN/A
7:30 AM73 °FBroken clouds.3 mph65%29.95 "HgN/A
7:00 AM72 °FBroken clouds.3 mph73%29.95 "HgN/A
6:30 AM72 °FPartly sunny.3 mph73%29.95 "HgN/A
6:00 AM72 °FPassing clouds.2 mph73%29.95 "HgN/A
5:30 AM72 °FPassing clouds.2 mph73%29.92 "HgN/A
5:00 AM72 °FPassing clouds.1 mph73%29.92 "HgN/A
4:30 AM70 °FClear.3 mph78%29.89 "Hg10 mi
4:00 AM72 °FPassing clouds.3 mph73%29.92 "HgN/A
3:30 AM72 °FClear.3 mph73%29.92 "Hg10 mi
3:00 AM72 °FClear.1 mph69%29.92 "Hg10 mi
2:30 AM72 °FClear.2 mph69%29.92 "Hg10 mi
2:00 AM72 °FClear.1 mph73%29.92 "Hg10 mi
1:30 AM72 °FClear.2 mph73%29.92 "Hg10 mi
1:00 AM70 °FClear.3 mph78%29.92 "Hg10 mi
12:30 AM73 °FPassing clouds.3 mph69%29.92 "HgN/A
12:00 AM73 °FClear.2 mph65%29.95 "Hg10 mi
11:30 PM
Sep 17
73 °FClear.2 mph65%29.92 "Hg10 mi
11:00 PM73 °FPassing clouds.5 mph69%29.92 "HgN/A
10:30 PM73 °FPassing clouds.6 mph69%29.95 "HgN/A
10:00 PM73 °FPassing clouds.5 mph65%29.92 "HgN/A
9:30 PM75 °FPassing clouds.6 mph61%29.95 "HgN/A
9:00 PM75 °FPassing clouds.6 mph57%29.92 "HgN/A
8:30 PM75 °FPassing clouds.6 mph57%29.92 "HgN/A
8:00 PM75 °FPassing clouds.6 mph54%29.92 "HgN/A
7:30 PM75 °FPassing clouds.6 mph54%29.92 "HgN/A
7:00 PM77 °FPassing clouds.9 mph54%29.92 "HgN/A
6:30 PM77 °FPassing clouds.10 mph57%29.92 "HgN/A
6:00 PM77 °FPartly sunny.9 mph57%29.92 "HgN/A
5:30 PM79 °FPartly sunny.9 mph54%29.92 "HgN/A
5:00 PM79 °FPartly sunny.9 mph51%29.92 "HgN/A
4:30 PM81 °FPartly sunny.9 mph48%29.89 "HgN/A
4:00 PM81 °FPartly sunny.12 mph48%29.89 "HgN/A
3:30 PM81 °FPartly sunny.9 mph45%29.89 "HgN/A
3:00 PM82 °FPartly sunny.13 mph45%29.89 "HgN/A
2:30 PM82 °FPartly sunny.13 mph45%29.89 "HgN/A
2:00 PM84 °FPartly sunny.13 mph43%29.89 "HgN/A
1:30 PM84 °FPartly sunny.12 mph43%29.89 "HgN/A
1:00 PM84 °FPartly sunny.12 mph43%29.92 "HgN/A
12:30 PM82 °FPartly sunny.12 mph45%29.89 "HgN/A
12:00 PM84 °FScattered clouds.8 mph45%29.92 "HgN/A
11:30 AM84 °FPassing clouds.6 mph40%29.92 "HgN/A
11:00 AM82 °FScattered clouds.3 mph45%29.92 "HgN/A
10:30 AM81 °FScattered clouds.5 mph48%29.95 "HgN/A
10:00 AM79 °FScattered clouds.3 mph54%29.95 "HgN/A
Weather by CustomWeather, © 2014

See weather overviewHow to use our weather pages